Location: Beccas
(43.4309°N, 0.1528°E)
Time: 10:49:50
(UTC+00:00)

Cosmos 1821 Rocket - Pass Details

Date: 15 October 2021
Orbit: 944 x 1005 km, 82.9° (Epoch: 07 December)

Event Time Altitude Azimuth Distance (km) Brightness Sun altitude
Rises 18:42:10 0° 190° (S) 3,714 7.1 -16.4°
Reaches altitude 10° 18:44:41 10° 192° (SSW) 2,771 6.5 -16.8°
Maximum altitude 18:51:04 77° 278° (W) 1,035 4.2 -18.0°
Drops below altitude 10° 18:57:29 10° 5° (N) 2,783 6.4 -19.2°
Sets 19:00:02 0° 7° (N) 3,731 7.1 -19.6°
